Content
SEND FEEDBACK

Daily
Averages
Monthly
Summary
United States of America

RED BLUFF, CALIFORNIA


Home > North America > United States > California
Elevation: 344 feet     Latitude: 40 09N     Longitude: 122 15W

WEATHER
 
SELECT A DAY
Number of Records: 184,996;   Date Range: 1/1/95 - 9/29/14
 
SHARE

PRINT THIS DATA

[ ← Previous Day ]
WEATHER ALMANAC - MARCH 3, 2013
[ Next Day → ]
[ °C ]   °F
Weather ElementAverageHighLow
Temperature57.7 °F68 °F (2:54 pm)46 °F (11:54 pm)
Dewpoint44.6 °F48 °F (5:54 am)39 °F (1:54 pm)
Humidity65 %89 % (11:54 pm)35 % (2:54 pm)
Barometer30.03 in30.07 in (8:54 am)29.99 in (2:54 pm)
Wind Speed3.5 mph10.4 mph (6:54 pm)
Weather ElementAverage
Visibility9.9 mi
Wind DirectionSSE (143.9 °)

Weather ElementTotal
Precipitation---
Heating Degree Days8 (Base 65)
Growing Degree Days7 (Base 50)
Averaged from 23 records on March 3, 2013
WEATHER CONDITIONS BREAKOUT
WIND DIRECTION BREAKOUT
WEATHER BY HOUR - MARCH 3, 2013
[ °C ]   °F
Local TimeTemperatureDewpointHumidityBarometerVisibilityWind DirectionWind SpeedGust SpeedPrecipitationEventsConditions
1:54 AM53.1 °F46.0 °F77 %30.05 in10.0 miNNW (330°)4.6 mphScattered Clouds
2:54 AM53.1 °F46.0 °F77 %30.04 in10.0 miNW (310°)5.8 mphOvercast
3:54 AM53.6 °F46.4 °F77 %30.06 in10.0 miCalmOvercast
4:54 AM54.0 °F46.9 °F77 %30.05 in10.0 miNNW (340°)9.2 mph0.00 inRainLight Rain
5:54 AM54.0 °F48.0 °F80 %30.05 in10.0 miNNE (20°)3.5 mph0.00 inOvercast
6:54 AM52.0 °F46.9 °F83 %30.05 in10.0 miCalmMostly Cloudy
7:54 AM54.0 °F48.0 °F80 %30.06 in10.0 miNorth (350°)3.5 mphMostly Cloudy
8:54 AM55.9 °F48.0 °F75 %30.07 in10.0 miCalmOvercast
9:54 AM60.1 °F48.0 °F64 %30.06 in10.0 miCalmOvercast
10:54 AM63.0 °F46.0 °F54 %30.06 in10.0 miNorth (360°)3.5 mphClear
11:54 AM64.9 °F45.0 °F48 %30.04 in10.0 miCalmClear
12:54 PM66.9 °F42.1 °F40 %30.01 in10.0 miSSE (150°)4.6 mphClear
1:54 PM66.9 °F39.0 °F36 %30.00 in10.0 miESE (120°)3.5 mphClear
2:54 PM68.0 °F39.0 °F35 %29.99 in8.0 miVariable3.5 mphClear
3:54 PM68.0 °F39.0 °F35 %29.99 in10.0 miSouth (170°)3.5 mphClear
4:54 PM68.0 °F39.0 °F35 %29.99 in10.0 miSSW (210°)4.6 mphClear
5:54 PM61.0 °F43.0 °F52 %29.99 in10.0 miSouth (180°)5.8 mphClear
6:54 PM59.0 °F46.0 °F62 %30.00 in10.0 miSSE (150°)10.4 mphClear
7:54 PM54.0 °F46.0 °F75 %30.02 in10.0 miSouth (170°)5.8 mphClear
8:54 PM52.0 °F45.0 °F77 %30.03 in10.0 miSW (220°)5.8 mphClear
9:54 PM51.1 °F45.0 °F80 %30.04 in10.0 miSW (230°)3.5 mphClear
10:54 PM48.9 °F45.0 °F86 %30.06 in10.0 miCalmClear
11:54 PM46.0 °F43.0 °F89 %30.06 in10.0 miCalmClear
Hourly data recorded from KRBL, located miles away from Red Bluff, California







STORIES FROM OUR PARTNERS